Weather History for Broomfield, CO

Change the Weather History Date:

Wednesday, May 23, 2012

  Actual Average Record
Temperature  
Mean Temperature 58 °F -  
Max Temperature 69 °F 71 °F 93 °F (1989)
Min Temperature 48 °F 47 °F 27 °F (1986)
Degree Days  
Heating Degree Days 6    
Growing Degree Days 8 (Base 50)    
Moisture  
Dew Point 35 °F    
Average Humidity 49    
Maximum Humidity 100    
Minimum Humidity 12    
Precipitation  
Precipitation 0.00 in - - ()
Sea Level Pressure  
Sea Level Pressure 29.72 in    
Wind  
Wind Speed 9 mph (NNE)    
Max Wind Speed 16 mph    
Max Gust Speed 28 mph    
Visibility 9 miles    
Events Rain , Thunderstorm    
Averages and records for this station are not official NWS values.
T = Trace of Precipitation, MM = Missing Value Source: NWS Daily Summary

Daily Weather History Graph

Daily Weather History Graph

Search for Another Location

Airport:

Trip Planner

Search our weather history database for the weather conditions in past years. The results will help you decide how hot, cold, wet, or windy it might be!

Date:

Astronomy

May. 23, 2012 Rise Set
Actual Time 5:38 AM MDT 8:16 PM MDT
Civil Twilight 5:07 AM MDT 8:47 PM MDT
Nautical Twilight 4:28 AM MDT 9:27 PM MDT
Astronomical Twilight 3:44 AM MDT 10:11 PM MDT
Moon 7:44 AM MDT (5/23) 10:39 PM MDT (5/23)
Length of Visible Light 15h 40m
Length of Day
14h 37m
Waxing Crescent, 7% of the Moon is Illuminated
May 23
Waxing Crescent
May 28
First Quarter
Jun 4
Full
Jun 11
Last Quarter
Jun 19
New

Hourly Weather History & Observations

Time (MDT) Temp. Dew Point Humidity Pressure Visibility Wind Dir Wind Speed Gust Speed Precip Events Conditions
12:13 AM 69.8 °F 14.0 °F 12% 29.69 in 10.0 mi North 16.1 mph 20.7 mph N/A   Clear
12:33 AM 69.8 °F 21.2 °F 16% 29.70 in 10.0 mi NNE 10.4 mph - N/A   Clear
12:53 AM 69.8 °F 21.2 °F 16% 29.71 in 10.0 mi North 10.4 mph 19.6 mph N/A   Clear
1:13 AM 68.0 °F 23.0 °F 18% 29.70 in 10.0 mi North 12.7 mph - N/A   Clear
1:33 AM 64.4 °F 23.0 °F 21% 29.70 in 10.0 mi NNW 9.2 mph - N/A   Clear
1:53 AM 64.4 °F 23.0 °F 21% 29.72 in 10.0 mi NNW 6.9 mph - N/A   Clear
2:12 AM 64.4 °F 23.0 °F 21% 29.72 in 10.0 mi NNW 11.5 mph - N/A   Clear
2:33 AM 64.4 °F 23.0 °F 21% 29.73 in 10.0 mi NNW 9.2 mph - N/A   Clear
2:52 AM 62.6 °F 24.8 °F 24% 29.74 in 10.0 mi NNW 5.8 mph - N/A   Clear
3:13 AM 62.6 °F 26.6 °F 26% 29.74 in 10.0 mi North 6.9 mph - N/A   Clear
3:33 AM 62.6 °F 24.8 °F 24% 29.75 in 10.0 mi North 5.8 mph - N/A   Clear
3:53 AM 60.8 °F 26.6 °F 27% 29.75 in 10.0 mi North 6.9 mph - N/A   Clear
4:13 AM 60.8 °F 26.6 °F 27% 29.74 in 10.0 mi NNW 4.6 mph - N/A   Clear
4:33 AM 60.8 °F 26.6 °F 27% 29.75 in 10.0 mi North 5.8 mph - N/A   Clear
4:53 AM 60.8 °F 26.6 °F 27% 29.75 in 10.0 mi NNW 4.6 mph - N/A   Clear
5:13 AM 59.0 °F 28.4 °F 31% 29.74 in 10.0 mi North 4.6 mph - N/A   Clear
5:33 AM 60.8 °F 28.4 °F 29% 29.74 in 10.0 mi NNE 4.6 mph - N/A   Clear
5:53 AM 59.0 °F 28.4 °F 31% 29.74 in 10.0 mi ENE 5.8 mph - N/A   Clear
6:51 AM 59.0 °F 28.4 °F 31% 29.78 in 60.0 mi North 13.8 mph - N/A   Mostly Cloudy
7:50 AM 57.2 °F 37.4 °F 48% 29.78 in 60.0 mi NNE 8.1 mph - N/A   Scattered Clouds
8:52 AM 57.2 °F 37.4 °F 48% 29.79 in 50.0 mi Variable 4.6 mph - N/A   Scattered Clouds
9:47 AM 59.0 °F 37.4 °F 45% 29.78 in 50.0 mi East 4.6 mph - N/A   Mostly Cloudy
10:25 AM 62.6 °F 35.6 °F 37% 29.74 in 50.0 mi ESE 11.5 mph 16.1 mph N/A   Mostly Cloudy
10:50 AM 60.8 °F 35.6 °F 39% 29.76 in 50.0 mi SSE 3.5 mph - N/A   Mostly Cloudy
11:49 AM 62.6 °F 35.6 °F 37% 29.71 in 50.0 mi East 5.8 mph - N/A   Overcast
12:50 PM 64.4 °F 35.6 °F 34% 29.70 in 60.0 mi SE 6.9 mph - N/A   Overcast
1:53 PM 66.2 °F 35.6 °F 32% 29.68 in 30.0 mi East 5.8 mph - N/A   Overcast
2:52 PM 48.2 °F 26.6 °F 43% 29.74 in 10.0 mi SW 16.1 mph 27.6 mph N/A   Mostly Cloudy
2:53 PM 62.6 °F 39.2 °F 42% 29.67 in 20.0 mi ENE 8.1 mph - N/A Rain Light Rain Showers
3:47 PM 55.4 °F 48.2 °F 77% 29.69 in 7.0 mi North 11.5 mph - N/A Rain Light Rain Showers
5:15 PM 53.6 °F 48.2 °F 82% 29.70 in 8.0 mi North 3.5 mph - N/A Rain Light Rain
5:34 PM 53.6 °F 48.2 °F 82% 29.68 in 5.0 mi ENE 8.1 mph - N/A Rain Light Rain
5:50 PM 51.8 °F 48.2 °F 88% 29.69 in 4.0 mi East 5.8 mph - N/A Rain Light Rain
6:47 PM 50.0 °F 48.2 °F 94% 29.66 in 5.0 mi East 8.1 mph - N/A Rain Light Rain
7:50 PM 50.0 °F 50.0 °F 100% 29.67 in 7.0 mi ESE 6.9 mph - N/A Rain Light Rain
8:25 PM 50.0 °F 50.0 °F 100% 29.72 in 3.0 mi Calm Calm - N/A Rain , Thunderstorm Light Thunderstorms and Rain
8:47 PM 50.0 °F 48.2 °F 94% 29.74 in 7.0 mi WSW 5.8 mph - N/A Rain , Thunderstorm Thunderstorms and Rain
9:35 PM 50.0 °F 48.2 °F 94% 29.72 in 10.0 mi ENE 5.8 mph - N/A   Overcast
9:55 PM 50.0 °F 48.2 °F 94% 29.74 in 6.0 mi ENE 4.6 mph - N/A   Overcast
11:12 PM 50.0 °F 48.2 °F 94% 29.73 in 7.0 mi North 9.2 mph - N/A   Overcast
11:32 PM 50.0 °F 48.2 °F 94% 29.72 in 7.0 mi NE 3.5 mph - N/A Rain Light Rain
11:52 PM 50.0 °F 48.2 °F 94% 29.72 in 7.0 mi NNE 8.1 mph - N/A   Overcast